Time,TemperatureF,DewpointF,PressureIn,WindDirection,WindDirectionDegrees,WindSpeedMPH,WindSpeedGustMPH,Humidity,HourlyPrecipIn,Conditions,Clouds,dailyrainin,SoftwareType,DateUTC
2013-12-31 00:01:00,31.6,29.5,30.26,WSW,257,1.0,2.0,92,0.00,,,0.00,Wunderground v.1.15,2013-12-31 05:01:00,
2013-12-31 00:02:00,31.5,29.7,30.26,WSW,250,2.0,2.0,93,0.00,,,0.00,Wunderground v.1.15,2013-12-31 05:02:00,
2013-12-31 00:03:00,31.5,29.7,30.26,WSW,252,2.0,2.0,93,0.00,,,0.00,Wunderground v.1.15,2013-12-31 05:03:00,
2013-12-31 00:04:00,31.4,29.6,30.26,WSW,252,2.0,2.0,93,0.00,,,0.00,Wunderground v.1.15,2013-12-31 05:04:00,
2013-12-31 00:09:00,31.3,29.5,30.27,West,274,3.0,4.0,93,0.00,,,0.00,Wunderground v.1.15,2013-12-31 05:09:00,
2013-12-31 00:12:00,31.3,29.8,30.27,West,277,2.0,4.0,94,0.00,,,0.00,Wunderground v.1.15,2013-12-31 05:12:00,
2013-12-31 00:17:00,31.2,29.7,30.27,West,276,4.0,4.0,94,0.00,,,0.00,Wunderground v.1.15,2013-12-31 05:17:00,
2013-12-31 00:23:00,31.2,29.7,30.27,West,265,4.0,4.0,94,0.00,,,0.00,Wunderground v.1.15,2013-12-31 05:23:00,
2013-12-31 00:28:00,31.1,29.6,30.26,WNW,283,3.0,4.0,94,0.00,,,0.00,Wunderground v.1.15,2013-12-31 05:28:00,
2013-12-31 00:34:00,31.2,29.7,30.26,West,262,4.0,5.0,94,0.00,,,0.00,Wunderground v.1.15,2013-12-31 05:34:00,
2013-12-31 00:39:00,31.2,29.7,30.26,WNW,289,5.0,5.0,94,0.00,,,0.00,Wunderground v.1.15,2013-12-31 05:39:00,
2013-12-31 00:45:00,31.0,29.5,30.26,NW,308,3.0,5.0,94,0.00,,,0.00,Wunderground v.1.15,2013-12-31 05:45:00,
2013-12-31 00:50:00,31.0,29.5,30.26,WSW,257,4.0,4.0,94,0.00,,,0.00,Wunderground v.1.15,2013-12-31 05:50:00,
2013-12-31 00:56:00,30.9,29.4,30.26,WNW,292,5.0,5.0,94,0.00,,,0.00,Wunderground v.1.15,2013-12-31 05:56:00,
2013-12-31 01:01:00,31.0,29.5,30.26,WNW,287,3.0,4.0,94,0.00,,,0.00,Wunderground v.1.15,2013-12-31 06:01:00,
2013-12-31 01:07:00,31.1,29.3,30.26,NW,304,3.0,4.0,93,0.00,,,0.00,Wunderground v.1.15,2013-12-31 06:07:00,
2013-12-31 01:12:00,31.0,29.2,30.27,NNW,328,5.0,5.0,93,0.00,,,0.00,Wunderground v.1.15,2013-12-31 06:12:00,
2013-12-31 01:17:00,31.0,29.2,30.27,WNW,301,4.0,6.0,93,0.00,,,0.00,Wunderground v.1.15,2013-12-31 06:17:00,
2013-12-31 01:23:00,30.8,29.0,30.27,WNW,288,4.0,4.0,93,0.00,,,0.00,Wunderground v.1.15,2013-12-31 06:23:00,
2013-12-31 01:28:00,30.7,28.9,30.27,West,264,5.0,6.0,93,0.00,,,0.00,Wunderground v.1.15,2013-12-31 06:28:00,
2013-12-31 01:34:00,30.5,29.0,30.27,West,273,5.0,6.0,94,0.00,,,0.00,Wunderground v.1.15,2013-12-31 06:34:00,
2013-12-31 01:39:00,30.3,28.8,30.27,West,274,9.0,9.0,94,0.00,,,0.00,Wunderground v.1.15,2013-12-31 06:39:00,
2013-12-31 01:45:00,30.1,28.6,30.27,WNW,287,7.0,7.0,94,0.00,,,0.00,Wunderground v.1.15,2013-12-31 06:45:00,
2013-12-31 01:50:00,29.9,28.4,30.27,WNW,297,6.0,8.0,94,0.00,,,0.00,Wunderground v.1.15,2013-12-31 06:50:00,
2013-12-31 01:56:00,29.8,28.3,30.27,WNW,293,7.0,15.0,94,0.00,,,0.00,Wunderground v.1.15,2013-12-31 06:56:00,
2013-12-31 02:01:00,29.7,28.4,30.27,WNW,298,6.0,7.0,95,0.00,,,0.00,Wunderground v.1.15,2013-12-31 07:01:00,
2013-12-31 02:06:00,29.6,28.1,30.27,WNW,292,10.0,11.0,94,0.00,,,0.00,Wunderground v.1.15,2013-12-31 07:06:00,
2013-12-31 02:11:00,29.5,28.0,30.27,WNW,291,4.0,8.0,94,0.00,,,0.00,Wunderground v.1.15,2013-12-31 07:11:00,
2013-12-31 02:16:00,29.4,27.9,30.27,WNW,287,6.0,9.0,94,0.00,,,0.00,Wunderground v.1.15,2013-12-31 07:16:00,
2013-12-31 02:21:00,29.3,27.8,30.27,WNW,285,6.0,10.0,94,0.00,,,0.00,Wunderground v.1.15,2013-12-31 07:21:00,
2013-12-31 02:26:00,29.3,27.8,30.27,West,276,5.0,10.0,94,0.00,,,0.00,Wunderground v.1.15,2013-12-31 07:26:00,
2013-12-31 02:31:00,29.1,27.8,30.27,WNW,295,5.0,10.0,95,0.00,,,0.00,Wunderground v.1.15,2013-12-31 07:31:00,
2013-12-31 02:36:00,29.1,27.8,30.27,West,279,7.0,10.0,95,0.00,,,0.00,Wunderground v.1.15,2013-12-31 07:36:00,
2013-12-31 02:41:00,29.0,27.7,30.27,West,281,6.0,8.0,95,0.00,,,0.00,Wunderground v.1.15,2013-12-31 07:41:00,
2013-12-31 02:46:00,28.9,27.4,30.27,West,278,5.0,8.0,94,0.00,,,0.00,Wunderground v.1.15,2013-12-31 07:46:00,
2013-12-31 02:51:00,28.8,27.5,30.27,WNW,284,5.0,5.0,95,0.00,,,0.00,Wunderground v.1.15,2013-12-31 07:51:00,
2013-12-31 02:56:00,28.7,27.4,30.28,WNW,293,5.0,7.0,95,0.00,,,0.00,Wunderground v.1.15,2013-12-31 07:56:00,
2013-12-31 03:01:00,28.5,27.3,30.28,WNW,297,7.0,7.0,95,0.00,,,0.00,Wunderground v.1.15,2013-12-31 08:01:00,
2013-12-31 03:06:00,28.5,27.3,30.28,West,260,5.0,8.0,95,0.00,,,0.00,Wunderground v.1.15,2013-12-31 08:06:00,
2013-12-31 03:11:00,28.5,27.3,30.30,WNW,298,6.0,10.0,95,0.00,,,0.00,Wunderground v.1.15,2013-12-31 08:11:00,
2013-12-31 03:16:00,28.4,27.2,30.30,West,278,6.0,10.0,95,0.00,,,0.00,Wunderground v.1.15,2013-12-31 08:16:00,
2013-12-31 03:21:00,28.3,27.1,30.30,WNW,294,10.0,11.0,95,0.00,,,0.00,Wunderground v.1.15,2013-12-31 08:21:00,
2013-12-31 03:26:00,28.4,27.2,30.30,West,279,7.0,11.0,95,0.00,,,0.00,Wunderground v.1.15,2013-12-31 08:26:00,
2013-12-31 03:31:00,28.4,27.2,30.30,WNW,295,3.0,9.0,95,0.00,,,0.00,Wunderground v.1.15,2013-12-31 08:31:00,
2013-12-31 03:37:00,28.3,26.8,30.30,WSW,256,3.0,9.0,94,0.00,,,0.00,Wunderground v.1.15,2013-12-31 08:37:00,
2013-12-31 03:42:00,28.3,26.8,30.31,WNW,283,3.0,4.0,94,0.00,,,0.00,Wunderground v.1.15,2013-12-31 08:42:00,
2013-12-31 03:47:00,28.3,26.8,30.31,WNW,288,4.0,4.0,94,0.00,,,0.00,Wunderground v.1.15,2013-12-31 08:47:00,
2013-12-31 03:52:00,28.3,26.8,30.31,WNW,290,2.0,4.0,94,0.00,,,0.00,Wunderground v.1.15,2013-12-31 08:52:00,
2013-12-31 03:56:00,28.2,26.7,30.30,West,267,2.0,4.0,94,0.00,,,0.00,Wunderground v.1.15,2013-12-31 08:56:00,
2013-12-31 04:01:00,28.2,26.7,30.30,NW,305,2.0,3.0,94,0.00,,,0.00,Wunderground v.1.15,2013-12-31 09:01:00,
2013-12-31 04:07:00,28.2,26.7,30.30,West,271,1.0,5.0,94,0.00,,,0.00,Wunderground v.1.15,2013-12-31 09:07:00,
2013-12-31 04:12:00,28.1,26.6,30.30,WNW,290,3.0,6.0,94,0.00,,,0.00,Wunderground v.1.15,2013-12-31 09:12:00,
2013-12-31 04:17:00,28.0,26.5,30.30,West,274,1.0,6.0,94,0.00,,,0.00,Wunderground v.1.15,2013-12-31 09:17:00,
2013-12-31 04:22:00,28.0,26.5,30.30,West,274,0.0,3.0,94,0.00,,,0.00,Wunderground v.1.15,2013-12-31 09:22:00,
2013-12-31 04:27:00,27.9,26.4,30.30,West,272,3.0,5.0,94,0.00,,,0.00,Wunderground v.1.15,2013-12-31 09:27:00,
2013-12-31 04:32:00,27.8,26.3,30.30,WNW,294,3.0,4.0,94,0.00,,,0.00,Wunderground v.1.15,2013-12-31 09:32:00,
2013-12-31 04:37:00,27.8,26.3,30.30,West,279,1.0,5.0,94,0.00,,,0.00,Wunderground v.1.15,2013-12-31 09:37:00,
2013-12-31 04:42:00,27.8,26.3,30.30,WNW,285,2.0,6.0,94,0.00,,,0.00,Wunderground v.1.15,2013-12-31 09:42:00,
2013-12-31 04:47:00,27.8,26.3,30.30,WSW,252,3.0,6.0,94,0.00,,,0.00,Wunderground v.1.15,2013-12-31 09:47:00,
2013-12-31 04:52:00,27.8,26.3,30.30,WSW,237,3.0,7.0,94,0.00,,,0.00,Wunderground v.1.15,2013-12-31 09:52:00,
2013-12-31 04:57:00,27.8,26.0,30.31,WNW,302,3.0,7.0,93,0.00,,,0.00,Wunderground v.1.15,2013-12-31 09:57:00,
2013-12-31 05:02:00,27.7,25.9,30.31,West,269,3.0,5.0,93,0.00,,,0.00,Wunderground v.1.15,2013-12-31 10:02:00,
2013-12-31 05:07:00,27.7,25.9,30.31,West,260,2.0,6.0,93,0.00,,,0.00,Wunderground v.1.15,2013-12-31 10:07:00,
2013-12-31 05:12:00,27.6,25.8,30.32,WNW,289,5.0,7.0,93,0.00,,,0.00,Wunderground v.1.15,2013-12-31 10:12:00,
2013-12-31 05:17:00,27.7,25.9,30.32,WNW,299,5.0,13.0,93,0.00,,,0.00,Wunderground v.1.15,2013-12-31 10:17:00,
2013-12-31 05:22:00,27.7,25.9,30.32,NNW,341,4.0,7.0,93,0.00,,,0.00,Wunderground v.1.15,2013-12-31 10:22:00,
2013-12-31 05:27:00,27.8,26.0,30.31,WSW,252,3.0,7.0,93,0.00,,,0.00,Wunderground v.1.15,2013-12-31 10:27:00,
2013-12-31 05:32:00,27.8,26.0,30.31,WNW,295,2.0,10.0,93,0.00,,,0.00,Wunderground v.1.15,2013-12-31 10:32:00,
2013-12-31 05:37:00,27.8,26.0,30.31,West,276,2.0,10.0,93,0.00,,,0.00,Wunderground v.1.15,2013-12-31 10:37:00,
2013-12-31 05:42:00,27.8,26.0,30.33,WNW,283,7.0,7.0,93,0.00,,,0.00,Wunderground v.1.15,2013-12-31 10:42:00,
2013-12-31 05:47:00,27.9,25.9,30.33,West,281,5.0,8.0,92,0.00,,,0.00,Wunderground v.1.15,2013-12-31 10:47:00,
2013-12-31 05:52:00,27.9,25.9,30.33,NW,304,4.0,7.0,92,0.00,,,0.00,Wunderground v.1.15,2013-12-31 10:52:00,
2013-12-31 05:57:00,28.0,26.0,30.33,North,359,5.0,10.0,92,0.00,,,0.00,Wunderground v.1.15,2013-12-31 10:57:00,
2013-12-31 06:02:00,28.1,26.1,30.33,NW,311,3.0,11.0,92,0.00,,,0.00,Wunderground v.1.15,2013-12-31 11:02:00,
2013-12-31 06:07:00,28.1,26.1,30.33,NW,314,3.0,11.0,92,0.00,,,0.00,Wunderground v.1.15,2013-12-31 11:07:00,
2013-12-31 06:12:00,28.1,26.1,30.33,West,264,9.0,9.0,92,0.00,,,0.00,Wunderground v.1.15,2013-12-31 11:12:00,
2013-12-31 06:18:00,28.0,25.7,30.33,WNW,288,3.0,11.0,91,0.00,,,0.00,Wunderground v.1.15,2013-12-31 11:18:00,
2013-12-31 06:23:00,28.0,26.0,30.33,WNW,293,4.0,10.0,92,0.00,,,0.00,Wunderground v.1.15,2013-12-31 11:23:00,
2013-12-31 06:28:00,28.0,25.7,30.34,WNW,282,4.0,10.0,91,0.00,,,0.00,Wunderground v.1.15,2013-12-31 11:28:00,
2013-12-31 06:33:00,27.9,25.6,30.34,WNW,290,4.0,9.0,91,0.00,,,0.00,Wunderground v.1.15,2013-12-31 11:33:00,
2013-12-31 06:38:00,27.9,25.6,30.34,WNW,284,3.0,9.0,91,0.00,,,0.00,Wunderground v.1.15,2013-12-31 11:38:00,
2013-12-31 06:43:00,27.9,25.6,30.35,WNW,292,3.0,7.0,91,0.00,,,0.00,Wunderground v.1.15,2013-12-31 11:43:00,
2013-12-31 06:48:00,27.8,25.5,30.35,WNW,283,6.0,9.0,91,0.00,,,0.00,Wunderground v.1.15,2013-12-31 11:48:00,
2013-12-31 06:53:00,27.7,25.4,30.35,West,269,3.0,6.0,91,0.00,,,0.00,Wunderground v.1.15,2013-12-31 11:53:00,
2013-12-31 06:58:00,27.7,25.4,30.35,WNW,285,3.0,6.0,91,0.00,,,0.00,Wunderground v.1.15,2013-12-31 11:58:00,
2013-12-31 07:03:00,27.6,25.3,30.35,NW,306,3.0,8.0,91,0.00,,,0.00,Wunderground v.1.15,2013-12-31 12:03:00,
2013-12-31 07:08:00,27.6,25.3,30.35,WNW,297,3.0,8.0,91,0.00,,,0.00,Wunderground v.1.15,2013-12-31 12:08:00,
2013-12-31 07:13:00,27.6,25.6,30.37,West,278,2.0,4.0,92,0.00,,,0.00,Wunderground v.1.15,2013-12-31 12:13:00,
2013-12-31 07:18:00,27.6,25.3,30.37,WNW,296,3.0,5.0,91,0.00,,,0.00,Wunderground v.1.15,2013-12-31 12:18:00,
2013-12-31 07:23:00,27.5,25.5,30.37,WNW,286,2.0,4.0,92,0.00,,,0.00,Wunderground v.1.15,2013-12-31 12:23:00,
2013-12-31 07:28:00,27.4,25.4,30.38,WNW,295,3.0,5.0,92,0.00,,,0.00,Wunderground v.1.15,2013-12-31 12:28:00,
2013-12-31 07:33:00,27.2,25.2,30.38,WNW,292,2.0,3.0,92,0.00,,,0.00,Wunderground v.1.15,2013-12-31 12:33:00,
2013-12-31 07:38:00,27.1,25.1,30.39,WNW,283,3.0,4.0,92,0.00,,,0.00,Wunderground v.1.15,2013-12-31 12:38:00,
2013-12-31 07:43:00,27.1,25.1,30.39,WNW,299,3.0,5.0,92,0.00,,,0.00,Wunderground v.1.15,2013-12-31 12:43:00,
2013-12-31 07:48:00,27.0,25.0,30.39,WNW,298,2.0,6.0,92,0.00,,,0.00,Wunderground v.1.15,2013-12-31 12:48:00,
2013-12-31 07:53:00,27.0,25.0,30.40,WNW,298,4.0,6.0,92,0.00,,,0.00,Wunderground v.1.15,2013-12-31 12:53:00,
2013-12-31 07:58:00,27.0,25.0,30.40,WNW,290,4.0,7.0,92,0.00,,,0.00,Wunderground v.1.15,2013-12-31 12:58:00,
2013-12-31 08:03:00,27.0,25.0,30.40,WNW,291,3.0,6.0,92,0.00,,,0.00,Wunderground v.1.15,2013-12-31 13:03:00,
2013-12-31 08:08:00,26.9,24.9,30.40,West,277,3.0,6.0,92,0.00,,,0.00,Wunderground v.1.15,2013-12-31 13:08:00,
2013-12-31 08:13:00,27.0,25.0,30.40,WNW,298,6.0,6.0,92,0.00,,,0.00,Wunderground v.1.15,2013-12-31 13:13:00,
2013-12-31 08:18:00,27.1,25.1,30.40,WNW,293,3.0,6.0,92,0.00,,,0.00,Wunderground v.1.15,2013-12-31 13:18:00,
2013-12-31 08:23:00,27.1,25.1,30.40,NW,307,2.0,11.0,92,0.00,,,0.00,Wunderground v.1.15,2013-12-31 13:23:00,
2013-12-31 08:28:00,27.2,25.2,30.40,West,269,3.0,11.0,92,0.00,,,0.00,Wunderground v.1.15,2013-12-31 13:28:00,
2013-12-31 08:34:00,27.2,25.2,30.40,West,267,4.0,6.0,92,0.00,,,0.00,Wunderground v.1.15,2013-12-31 13:34:00,
2013-12-31 08:39:00,27.3,25.3,30.41,WNW,288,3.0,6.0,92,0.00,,,0.00,Wunderground v.1.15,2013-12-31 13:39:00,
2013-12-31 08:44:00,27.3,25.3,30.41,NW,305,3.0,4.0,92,0.00,,,0.00,Wunderground v.1.15,2013-12-31 13:44:00,
2013-12-31 08:49:00,27.4,25.1,30.41,WNW,288,3.0,4.0,91,0.00,,,0.00,Wunderground v.1.15,2013-12-31 13:49:00,
2013-12-31 08:54:00,27.5,25.2,30.42,West,259,1.0,3.0,91,0.00,,,0.00,Wunderground v.1.15,2013-12-31 13:54:00,
2013-12-31 08:59:00,27.6,25.3,30.42,WSW,250,0.0,3.0,91,0.00,,,0.00,Wunderground v.1.15,2013-12-31 13:59:00,
2013-12-31 09:04:00,27.9,25.3,30.42,West,272,3.0,4.0,90,0.00,,,0.00,Wunderground v.1.15,2013-12-31 14:04:00,
2013-12-31 09:09:00,28.1,25.5,30.44,West,266,2.0,4.0,90,0.00,,,0.00,Wunderground v.1.15,2013-12-31 14:09:00,
2013-12-31 09:14:00,28.4,25.8,30.44,WNW,288,1.0,4.0,90,0.00,,,0.00,Wunderground v.1.15,2013-12-31 14:14:00,
2013-12-31 09:19:00,28.5,25.9,30.44,West,273,2.0,4.0,90,0.00,,,0.00,Wunderground v.1.15,2013-12-31 14:19:00,
2013-12-31 09:24:00,28.8,26.0,30.44,West,280,2.0,3.0,89,0.00,,,0.00,Wunderground v.1.15,2013-12-31 14:24:00,
2013-12-31 09:29:00,28.9,26.1,30.44,NW,304,2.0,4.0,89,0.00,,,0.00,Wunderground v.1.15,2013-12-31 14:29:00,
2013-12-31 09:34:00,29.2,26.4,30.44,WNW,292,4.0,5.0,89,0.00,,,0.00,Wunderground v.1.15,2013-12-31 14:34:00,
2013-12-31 09:40:00,29.4,25.7,30.44,NNE,15,5.0,5.0,86,0.00,,,0.00,Wunderground v.1.15,2013-12-31 14:40:00,
2013-12-31 09:45:00,29.6,25.9,30.44,WNW,290,1.0,6.0,86,0.00,,,0.00,Wunderground v.1.15,2013-12-31 14:45:00,
2013-12-31 09:50:00,29.7,25.5,30.44,NW,316,4.0,4.0,84,0.00,,,0.00,Wunderground v.1.15,2013-12-31 14:50:00,
2013-12-31 09:55:00,29.7,24.9,30.44,West,274,3.0,6.0,82,0.00,,,0.00,Wunderground v.1.15,2013-12-31 14:55:00,
2013-12-31 10:00:00,29.7,24.9,30.44,NNW,329,4.0,6.0,82,0.00,,,0.00,Wunderground v.1.15,2013-12-31 15:00:00,
2013-12-31 10:05:00,29.7,24.9,30.44,West,272,3.0,7.0,82,0.00,,,0.00,Wunderground v.1.15,2013-12-31 15:05:00,
2013-12-31 10:10:00,29.8,25.0,30.46,West,271,4.0,5.0,82,0.00,,,0.00,Wunderground v.1.15,2013-12-31 15:10:00,
2013-12-31 10:15:00,30.1,25.3,30.46,NNW,333,0.0,7.0,82,0.00,,,0.00,Wunderground v.1.15,2013-12-31 15:15:00,
2013-12-31 10:20:00,30.3,24.9,30.46,WSW,238,2.0,3.0,80,0.00,,,0.00,Wunderground v.1.15,2013-12-31 15:20:00,
2013-12-31 10:25:00,30.6,25.2,30.46,West,271,3.0,5.0,80,0.00,,,0.00,Wunderground v.1.15,2013-12-31 15:25:00,
2013-12-31 10:30:00,30.9,25.2,30.46,NW,322,2.0,5.0,79,0.00,,,0.00,Wunderground v.1.15,2013-12-31 15:30:00,
2013-12-31 10:35:00,30.8,24.7,30.46,West,274,1.0,6.0,78,0.00,,,0.00,Wunderground v.1.15,2013-12-31 15:35:00,
2013-12-31 10:40:00,30.8,25.1,30.47,NW,310,2.0,4.0,79,0.00,,,0.00,Wunderground v.1.15,2013-12-31 15:40:00,
2013-12-31 10:45:00,30.8,25.1,30.47,WNW,287,3.0,7.0,79,0.00,,,0.00,Wunderground v.1.15,2013-12-31 15:45:00,
2013-12-31 10:50:00,31.1,25.3,30.47,NW,304,3.0,3.0,79,0.00,,,0.00,Wunderground v.1.15,2013-12-31 15:50:00,
2013-12-31 10:55:00,31.4,25.9,30.48,NW,306,3.0,4.0,80,0.00,,,0.00,Wunderground v.1.15,2013-12-31 15:55:00,
2013-12-31 11:00:00,31.6,25.5,30.48,WSW,253,7.0,7.0,78,0.00,,,0.00,Wunderground v.1.15,2013-12-31 16:00:00,
2013-12-31 11:05:00,31.6,25.2,30.48,West,262,2.0,9.0,77,0.00,,,0.00,Wunderground v.1.15,2013-12-31 16:05:00,
2013-12-31 11:10:00,31.7,25.3,30.49,NNW,330,4.0,6.0,77,0.00,,,0.00,Wunderground v.1.15,2013-12-31 16:10:00,
2013-12-31 11:15:00,31.8,25.1,30.49,NW,306,1.0,11.0,76,0.00,,,0.00,Wunderground v.1.15,2013-12-31 16:15:00,
2013-12-31 11:20:00,32.1,26.0,30.49,WNW,290,3.0,4.0,78,0.00,,,0.00,Wunderground v.1.15,2013-12-31 16:20:00,
2013-12-31 11:25:00,32.3,25.6,30.49,NW,314,5.0,8.0,76,0.00,,,0.00,Wunderground v.1.15,2013-12-31 16:25:00,
2013-12-31 11:30:00,32.3,25.3,30.49,WSW,246,3.0,4.0,75,0.00,,,0.00,Wunderground v.1.15,2013-12-31 16:30:00,
2013-12-31 11:35:00,32.5,25.1,30.49,NW,307,2.0,4.0,74,0.00,,,0.00,Wunderground v.1.15,2013-12-31 16:35:00,
2013-12-31 11:40:00,32.9,25.5,30.48,WNW,288,1.0,2.0,74,0.00,,,0.00,Wunderground v.1.15,2013-12-31 16:40:00,
2013-12-31 11:45:00,33.1,25.7,30.48,NW,306,2.0,6.0,74,0.00,,,0.00,Wunderground v.1.15,2013-12-31 16:45:00,
2013-12-31 11:50:00,33.5,25.1,30.48,NW,307,9.0,9.0,71,0.00,,,0.00,Wunderground v.1.15,2013-12-31 16:50:00,
2013-12-31 11:55:00,33.7,25.3,30.48,NNE,20,3.0,9.0,71,0.00,,,0.00,Wunderground v.1.15,2013-12-31 16:55:00,
2013-12-31 12:00:00,34.3,25.2,30.48,NW,314,1.0,4.0,69,0.00,,,0.00,Wunderground v.1.15,2013-12-31 17:00:00,
2013-12-31 12:05:00,34.7,25.2,30.48,WNW,295,1.0,5.0,68,0.00,,,0.00,Wunderground v.1.15,2013-12-31 17:05:00,
2013-12-31 12:10:00,35.0,24.8,30.46,NW,317,5.0,7.0,66,0.00,,,0.00,Wunderground v.1.15,2013-12-31 17:10:00,
2013-12-31 12:15:00,35.1,25.6,30.46,WNW,286,4.0,7.0,68,0.00,,,0.00,Wunderground v.1.15,2013-12-31 17:15:00,
2013-12-31 12:20:00,35.3,25.4,30.46,North,356,4.0,5.0,67,0.00,,,0.00,Wunderground v.1.15,2013-12-31 17:20:00,
2013-12-31 12:25:00,35.4,25.2,30.45,WNW,286,2.0,6.0,66,0.00,,,0.00,Wunderground v.1.15,2013-12-31 17:25:00,
2013-12-31 12:30:00,35.6,25.4,30.45,NW,323,2.0,4.0,66,0.00,,,0.00,Wunderground v.1.15,2013-12-31 17:30:00,
2013-12-31 12:35:00,36.0,25.4,30.45,NW,319,2.0,5.0,65,0.00,,,0.00,Wunderground v.1.15,2013-12-31 17:35:00,
2013-12-31 12:40:00,36.5,25.8,30.44,WNW,288,5.0,5.0,65,0.00,,,0.00,Wunderground v.1.15,2013-12-31 17:40:00,
2013-12-31 12:45:00,36.6,25.6,30.44,NNW,328,0.0,5.0,64,0.00,,,0.00,Wunderground v.1.15,2013-12-31 17:45:00,
2013-12-31 12:50:00,36.9,26.2,30.44,NNW,345,2.0,2.0,65,0.00,,,0.00,Wunderground v.1.15,2013-12-31 17:50:00,
2013-12-31 12:55:00,37.4,26.3,30.43,East,86,2.0,4.0,64,0.00,,,0.00,Wunderground v.1.15,2013-12-31 17:55:00,
2013-12-31 13:00:00,37.1,26.0,30.43,NNE,28,3.0,5.0,64,0.00,,,0.00,Wunderground v.1.15,2013-12-31 18:00:00,
2013-12-31 13:05:00,37.0,25.2,30.43,NNW,347,1.0,5.0,62,0.00,,,0.00,Wunderground v.1.15,2013-12-31 18:05:00,
2013-12-31 13:10:00,37.2,26.1,30.42,NNE,19,2.0,3.0,64,0.00,,,0.00,Wunderground v.1.15,2013-12-31 18:10:00,
2013-12-31 13:15:00,37.3,25.8,30.42,ENE,57,1.0,4.0,63,0.00,,,0.00,Wunderground v.1.15,2013-12-31 18:15:00,
2013-12-31 13:20:00,37.5,25.7,30.42,North,349,2.0,3.0,62,0.00,,,0.00,Wunderground v.1.15,2013-12-31 18:20:00,
2013-12-31 13:25:00,37.5,26.0,30.41,NW,321,0.0,3.0,63,0.00,,,0.00,Wunderground v.1.15,2013-12-31 18:25:00,
2013-12-31 13:30:00,37.6,25.7,30.41,ESE,118,3.0,4.0,62,0.00,,,0.00,Wunderground v.1.15,2013-12-31 18:30:00,
2013-12-31 13:35:00,37.7,25.5,30.41,NNE,24,1.0,7.0,61,0.00,,,0.00,Wunderground v.1.15,2013-12-31 18:35:00,
2013-12-31 13:40:00,37.5,25.3,30.39,NNE,20,1.0,3.0,61,0.00,,,0.00,Wunderground v.1.15,2013-12-31 18:40:00,
2013-12-31 13:46:00,37.3,25.5,30.39,NW,326,2.0,5.0,62,0.00,,,0.00,Wunderground v.1.15,2013-12-31 18:46:00,
2013-12-31 13:51:00,37.4,25.9,30.39,ENE,73,2.0,4.0,63,0.00,,,0.00,Wunderground v.1.15,2013-12-31 18:51:00,
2013-12-31 13:56:00,37.6,25.7,30.39,WNW,301,4.0,4.0,62,0.00,,,0.00,Wunderground v.1.15,2013-12-31 18:56:00,
2013-12-31 14:01:00,37.9,26.8,30.39,West,274,2.0,4.0,64,0.00,,,0.00,Wunderground v.1.15,2013-12-31 19:01:00,
2013-12-31 14:06:00,38.0,25.3,30.39,North,11,1.0,6.0,60,0.00,,,0.00,Wunderground v.1.15,2013-12-31 19:06:00,
2013-12-31 14:11:00,38.3,26.0,30.39,ENE,57,1.0,3.0,61,0.00,,,0.00,Wunderground v.1.15,2013-12-31 19:11:00,
2013-12-31 14:16:00,38.5,26.2,30.39,North,8,2.0,7.0,61,0.00,,,0.00,Wunderground v.1.15,2013-12-31 19:16:00,
2013-12-31 14:21:00,38.5,25.8,30.39,NE,56,2.0,6.0,60,0.00,,,0.00,Wunderground v.1.15,2013-12-31 19:21:00,
2013-12-31 14:26:00,38.5,25.8,30.39,NE,35,2.0,6.0,60,0.00,,,0.00,Wunderground v.1.15,2013-12-31 19:26:00,
2013-12-31 14:31:00,38.4,26.1,30.39,ENE,60,4.0,5.0,61,0.00,,,0.00,Wunderground v.1.15,2013-12-31 19:31:00,
2013-12-31 14:36:00,38.2,25.9,30.39,ENE,66,6.0,6.0,61,0.00,,,0.00,Wunderground v.1.15,2013-12-31 19:36:00,
2013-12-31 14:41:00,38.0,25.7,30.39,East,92,2.0,5.0,61,0.00,,,0.00,Wunderground v.1.15,2013-12-31 19:41:00,
2013-12-31 14:46:00,38.0,25.7,30.39,ENE,58,3.0,7.0,61,0.00,,,0.00,Wunderground v.1.15,2013-12-31 19:46:00,
2013-12-31 14:51:00,37.9,26.0,30.39,ESE,108,2.0,4.0,62,0.00,,,0.00,Wunderground v.1.15,2013-12-31 19:51:00,
2013-12-31 14:56:00,38.1,25.4,30.39,NNE,29,2.0,4.0,60,0.00,,,0.00,Wunderground v.1.15,2013-12-31 19:56:00,
2013-12-31 15:01:00,38.0,25.7,30.39,NE,53,3.0,5.0,61,0.00,,,0.00,Wunderground v.1.15,2013-12-31 20:01:00,
2013-12-31 15:06:00,37.7,25.8,30.39,East,82,5.0,7.0,62,0.00,,,0.00,Wunderground v.1.15,2013-12-31 20:06:00,
2013-12-31 15:11:00,37.5,26.0,30.39,ENE,67,4.0,6.0,63,0.00,,,0.00,Wunderground v.1.15,2013-12-31 20:11:00,
2013-12-31 15:16:00,37.4,26.3,30.39,ESE,121,5.0,7.0,64,0.00,,,0.00,Wunderground v.1.15,2013-12-31 20:16:00,
2013-12-31 15:21:00,37.3,25.8,30.39,ENE,70,6.0,8.0,63,0.00,,,0.00,Wunderground v.1.15,2013-12-31 20:21:00,
2013-12-31 15:26:00,37.3,27.0,30.39,East,87,3.0,8.0,66,0.00,,,0.00,Wunderground v.1.15,2013-12-31 20:26:00,
2013-12-31 15:32:00,37.6,26.5,30.39,ENE,69,5.0,5.0,64,0.00,,,0.00,Wunderground v.1.15,2013-12-31 20:32:00,
2013-12-31 15:37:00,37.1,26.4,30.39,ESE,109,4.0,8.0,65,0.00,,,0.00,Wunderground v.1.15,2013-12-31 20:37:00,
2013-12-31 15:42:00,36.8,26.1,30.39,ENE,63,4.0,8.0,65,0.00,,,0.00,Wunderground v.1.15,2013-12-31 20:42:00,
2013-12-31 15:47:00,36.8,26.5,30.39,East,85,6.0,8.0,66,0.00,,,0.00,Wunderground v.1.15,2013-12-31 20:47:00,
2013-12-31 15:52:00,36.5,25.8,30.39,NE,56,2.0,7.0,65,0.00,,,0.00,Wunderground v.1.15,2013-12-31 20:52:00,
2013-12-31 15:57:00,36.5,26.2,30.39,ESE,103,3.0,7.0,66,0.00,,,0.00,Wunderground v.1.15,2013-12-31 20:57:00,
2013-12-31 16:02:00,36.4,26.1,30.39,ENE,68,4.0,5.0,66,0.00,,,0.00,Wunderground v.1.15,2013-12-31 21:02:00,
2013-12-31 16:07:00,36.2,25.9,30.39,ENE,70,4.0,7.0,66,0.00,,,0.00,Wunderground v.1.15,2013-12-31 21:07:00,
2013-12-31 16:12:00,36.1,25.8,30.40,ENE,63,3.0,4.0,66,0.00,,,0.00,Wunderground v.1.15,2013-12-31 21:12:00,
2013-12-31 16:17:00,35.9,26.0,30.40,SE,127,1.0,4.0,67,0.00,,,0.00,Wunderground v.1.15,2013-12-31 21:17:00,
2013-12-31 16:22:00,35.8,25.9,30.40,ESE,105,2.0,4.0,67,0.00,,,0.00,Wunderground v.1.15,2013-12-31 21:22:00,
2013-12-31 16:27:00,35.5,26.0,30.39,ESE,103,3.0,4.0,68,0.00,,,0.00,Wunderground v.1.15,2013-12-31 21:27:00,
2013-12-31 16:32:00,35.5,26.0,30.39,East,94,2.0,3.0,68,0.00,,,0.00,Wunderground v.1.15,2013-12-31 21:32:00,
2013-12-31 16:37:00,35.4,25.9,30.39,East,94,2.0,3.0,68,0.00,,,0.00,Wunderground v.1.15,2013-12-31 21:37:00,
2013-12-31 16:42:00,35.3,26.5,30.40,East,94,0.0,1.0,70,0.00,,,0.00,Wunderground v.1.15,2013-12-31 21:42:00,
2013-12-31 16:47:00,35.2,26.4,30.40,East,94,0.0,1.0,70,0.00,,,0.00,Wunderground v.1.15,2013-12-31 21:47:00,
2013-12-31 16:52:00,35.1,25.9,30.40,East,94,0.0,1.0,69,0.00,,,0.00,Wunderground v.1.15,2013-12-31 21:52:00,
2013-12-31 16:57:00,35.0,25.9,30.40,East,89,0.0,1.0,69,0.00,,,0.00,Wunderground v.1.15,2013-12-31 21:57:00,
2013-12-31 17:02:00,35.0,25.9,30.40,East,84,1.0,2.0,69,0.00,,,0.00,Wunderground v.1.15,2013-12-31 22:02:00,
2013-12-31 17:07:00,34.8,25.7,30.40,East,84,1.0,2.0,69,0.00,,,0.00,Wunderground v.1.15,2013-12-31 22:07:00,
2013-12-31 17:12:00,34.7,25.9,30.41,East,84,0.0,1.0,70,0.00,,,0.00,Wunderground v.1.15,2013-12-31 22:12:00,
2013-12-31 17:17:00,34.6,25.5,30.41,East,83,0.0,3.0,69,0.00,,,0.00,Wunderground v.1.15,2013-12-31 22:17:00,
2013-12-31 17:22:00,34.5,25.7,30.41,East,83,0.0,1.0,70,0.00,,,0.00,Wunderground v.1.15,2013-12-31 22:22:00,
2013-12-31 17:27:00,34.3,26.2,30.41,East,83,0.0,1.0,72,0.00,,,0.00,Wunderground v.1.15,2013-12-31 22:27:00,
2013-12-31 17:32:00,34.1,25.7,30.41,East,83,0.0,1.0,71,0.00,,,0.00,Wunderground v.1.15,2013-12-31 22:32:00,
2013-12-31 17:37:00,33.9,25.8,30.41,East,83,0.0,1.0,72,0.00,,,0.00,Wunderground v.1.15,2013-12-31 22:37:00,
2013-12-31 17:42:00,33.6,26.8,30.41,East,83,2.0,2.0,76,0.00,,,0.00,Wunderground v.1.15,2013-12-31 22:42:00,
2013-12-31 17:47:00,33.3,26.5,30.41,ENE,72,1.0,2.0,76,0.00,,,0.00,Wunderground v.1.15,2013-12-31 22:47:00,
2013-12-31 17:52:00,33.0,25.9,30.41,ENE,62,0.0,1.0,75,0.00,,,0.00,Wunderground v.1.15,2013-12-31 22:52:00,
2013-12-31 17:57:00,32.9,25.5,30.42,ENE,62,1.0,1.0,74,0.00,,,0.00,Wunderground v.1.15,2013-12-31 22:57:00,
2013-12-31 18:02:00,32.8,25.7,30.42,NE,38,0.0,1.0,75,0.00,,,0.00,Wunderground v.1.15,2013-12-31 23:02:00,
2013-12-31 18:07:00,32.6,25.2,30.42,NE,38,0.0,1.0,74,0.00,,,0.00,Wunderground v.1.15,2013-12-31 23:07:00,
2013-12-31 18:12:00,32.7,25.3,30.42,NE,44,0.0,1.0,74,0.00,,,0.00,Wunderground v.1.15,2013-12-31 23:12:00,
2013-12-31 18:17:00,32.6,25.2,30.42,NE,44,1.0,1.0,74,0.00,,,0.00,Wunderground v.1.15,2013-12-31 23:17:00,
2013-12-31 18:22:00,32.6,25.6,30.42,NE,44,1.0,1.0,75,0.00,,,0.00,Wunderground v.1.15,2013-12-31 23:22:00,
2013-12-31 18:27:00,32.5,25.8,30.42,North,359,1.0,2.0,76,0.00,,,0.00,Wunderground v.1.15,2013-12-31 23:27:00,
2013-12-31 18:33:00,32.4,25.4,30.42,North,359,1.0,1.0,75,0.00,,,0.00,Wunderground v.1.15,2013-12-31 23:33:00,
2013-12-31 18:38:00,32.3,25.3,30.42,North,359,0.0,1.0,75,0.00,,,0.00,Wunderground v.1.15,2013-12-31 23:38:00,
2013-12-31 18:43:00,32.3,25.3,30.42,North,359,0.0,1.0,75,0.00,,,0.00,Wunderground v.1.15,2013-12-31 23:43:00,
2013-12-31 18:48:00,32.3,25.3,30.42,North,359,0.0,1.0,75,0.00,,,0.00,Wunderground v.1.15,2013-12-31 23:48:00,
2013-12-31 18:53:00,32.2,25.2,30.42,North,359,1.0,2.0,75,0.00,,,0.00,Wunderground v.1.15,2013-12-31 23:53:00,
2013-12-31 18:57:00,32.1,25.4,30.42,North,359,1.0,2.0,76,0.00,,,0.00,Wunderground v.1.15,2013-12-31 23:57:00,
2013-12-31 19:03:00,32.1,25.4,30.42,WNW,300,0.0,2.0,76,0.00,,,0.00,Wunderground v.1.15,2014-01-01 00:03:00,
2013-12-31 19:08:00,32.0,25.6,30.42,WNW,284,2.0,2.0,77,0.00,,,0.00,Wunderground v.1.15,2014-01-01 00:08:00,
2013-12-31 19:13:00,31.9,25.5,30.42,WNW,284,1.0,2.0,77,0.00,,,0.00,Wunderground v.1.15,2014-01-01 00:13:00,
2013-12-31 19:18:00,31.9,25.8,30.42,WNW,284,2.0,2.0,78,0.00,,,0.00,Wunderground v.1.15,2014-01-01 00:18:00,
2013-12-31 19:23:00,31.6,25.5,30.42,WNW,284,1.0,2.0,78,0.00,,,0.00,Wunderground v.1.15,2014-01-01 00:23:00,
2013-12-31 19:28:00,31.6,25.5,30.43,WNW,284,2.0,2.0,78,0.00,,,0.00,Wunderground v.1.15,2014-01-01 00:28:00,
2013-12-31 19:33:00,31.6,25.8,30.43,WNW,284,1.0,2.0,79,0.00,,,0.00,Wunderground v.1.15,2014-01-01 00:33:00,
2013-12-31 19:38:00,31.5,25.7,30.43,WNW,284,1.0,3.0,79,0.00,,,0.00,Wunderground v.1.15,2014-01-01 00:38:00,
2013-12-31 19:43:00,31.4,25.9,30.43,West,276,2.0,3.0,80,0.00,,,0.00,Wunderground v.1.15,2014-01-01 00:43:00,
2013-12-31 19:48:00,31.4,25.6,30.43,West,276,1.0,3.0,79,0.00,,,0.00,Wunderground v.1.15,2014-01-01 00:48:00,
2013-12-31 19:53:00,31.4,25.6,30.43,West,275,2.0,3.0,79,0.00,,,0.00,Wunderground v.1.15,2014-01-01 00:53:00,
2013-12-31 19:59:00,31.2,25.7,30.43,West,266,1.0,3.0,80,0.00,,,0.00,Wunderground v.1.15,2014-01-01 00:59:00,
2013-12-31 20:03:00,31.2,25.4,30.43,WSW,255,3.0,3.0,79,0.00,,,0.00,Wunderground v.1.15,2014-01-01 01:03:00,
2013-12-31 20:09:00,31.3,25.5,30.44,West,262,1.0,3.0,79,0.00,,,0.00,Wunderground v.1.15,2014-01-01 01:09:00,
2013-12-31 20:14:00,31.2,25.7,30.44,West,276,1.0,3.0,80,0.00,,,0.00,Wunderground v.1.15,2014-01-01 01:14:00,
2013-12-31 20:19:00,31.2,25.4,30.44,West,276,2.0,3.0,79,0.00,,,0.00,Wunderground v.1.15,2014-01-01 01:19:00,
2013-12-31 20:24:00,31.2,25.4,30.42,West,276,2.0,3.0,79,0.00,,,0.00,Wunderground v.1.15,2014-01-01 01:24:00,
2013-12-31 20:29:00,31.2,25.4,30.42,West,277,2.0,3.0,79,0.00,,,0.00,Wunderground v.1.15,2014-01-01 01:29:00,
2013-12-31 20:34:00,31.1,25.7,30.42,West,277,1.0,3.0,80,0.00,,,0.00,Wunderground v.1.15,2014-01-01 01:34:00,
2013-12-31 20:39:00,31.0,25.9,30.42,West,277,2.0,3.0,81,0.00,,,0.00,Wunderground v.1.15,2014-01-01 01:39:00,
2013-12-31 20:44:00,31.0,25.6,30.42,WNW,285,3.0,3.0,80,0.00,,,0.00,Wunderground v.1.15,2014-01-01 01:44:00,
2013-12-31 20:49:00,30.9,25.8,30.42,WNW,285,1.0,3.0,81,0.00,,,0.00,Wunderground v.1.15,2014-01-01 01:49:00,
2013-12-31 20:54:00,31.0,25.6,30.42,WNW,283,1.0,2.0,80,0.00,,,0.00,Wunderground v.1.15,2014-01-01 01:54:00,
2013-12-31 20:59:00,31.0,25.6,30.42,WNW,283,2.0,2.0,80,0.00,,,0.00,Wunderground v.1.15,2014-01-01 01:59:00,
2013-12-31 21:04:00,31.0,25.6,30.42,WNW,283,1.0,2.0,80,0.00,,,0.00,Wunderground v.1.15,2014-01-01 02:04:00,
2013-12-31 21:09:00,31.1,25.3,30.42,WNW,285,1.0,2.0,79,0.00,,,0.00,Wunderground v.1.15,2014-01-01 02:09:00,
2013-12-31 21:14:00,31.2,25.7,30.42,WNW,293,2.0,3.0,80,0.00,,,0.00,Wunderground v.1.15,2014-01-01 02:14:00,
2013-12-31 21:19:00,31.2,25.7,30.42,WNW,293,1.0,3.0,80,0.00,,,0.00,Wunderground v.1.15,2014-01-01 02:19:00,
2013-12-31 21:24:00,31.2,25.4,30.42,WNW,293,1.0,2.0,79,0.00,,,0.00,Wunderground v.1.15,2014-01-01 02:24:00,
2013-12-31 21:29:00,31.2,25.4,30.42,WNW,293,1.0,2.0,79,0.00,,,0.00,Wunderground v.1.15,2014-01-01 02:29:00,
2013-12-31 21:34:00,31.3,25.5,30.42,WNW,294,1.0,2.0,79,0.00,,,0.00,Wunderground v.1.15,2014-01-01 02:34:00,
2013-12-31 21:39:00,31.5,25.4,30.42,WNW,293,1.0,2.0,78,0.00,,,0.00,Wunderground v.1.15,2014-01-01 02:39:00,
2013-12-31 21:44:00,31.6,25.5,30.42,WNW,293,1.0,2.0,78,0.00,,,0.00,Wunderground v.1.15,2014-01-01 02:44:00,
2013-12-31 21:49:00,31.7,25.3,30.42,WNW,293,1.0,2.0,77,0.00,,,0.00,Wunderground v.1.15,2014-01-01 02:49:00,
2013-12-31 21:54:00,31.9,25.5,30.41,WNW,293,2.0,2.0,77,0.00,,,0.00,Wunderground v.1.15,2014-01-01 02:54:00,
2013-12-31 21:59:00,31.8,25.4,30.41,WNW,294,2.0,2.0,77,0.00,,,0.00,Wunderground v.1.15,2014-01-01 02:59:00,
2013-12-31 22:04:00,31.7,25.3,30.41,NW,316,2.0,3.0,77,0.00,,,0.00,Wunderground v.1.15,2014-01-01 03:04:00,
2013-12-31 22:09:00,31.6,25.2,30.39,NW,308,2.0,3.0,77,0.00,,,0.00,Wunderground v.1.15,2014-01-01 03:09:00,
2013-12-31 22:14:00,31.5,25.4,30.39,NW,318,4.0,4.0,78,0.00,,,0.00,Wunderground v.1.15,2014-01-01 03:14:00,
2013-12-31 22:19:00,31.5,25.4,30.39,NW,317,2.0,2.0,78,0.00,,,0.00,Wunderground v.1.15,2014-01-01 03:19:00,
2013-12-31 22:24:00,31.5,25.4,30.39,NW,321,1.0,3.0,78,0.00,,,0.00,Wunderground v.1.15,2014-01-01 03:24:00,
2013-12-31 22:29:00,31.7,25.6,30.39,NW,320,1.0,2.0,78,0.00,,,0.00,Wunderground v.1.15,2014-01-01 03:29:00,
2013-12-31 22:35:00,31.6,25.2,30.39,NNW,328,1.0,2.0,77,0.00,,,0.00,Wunderground v.1.15,2014-01-01 03:35:00,
2013-12-31 22:40:00,31.7,25.3,30.38,NW,326,2.0,2.0,77,0.00,,,0.00,Wunderground v.1.15,2014-01-01 03:40:00,
2013-12-31 22:45:00,31.6,25.2,30.38,NW,326,1.0,2.0,77,0.00,,,0.00,Wunderground v.1.15,2014-01-01 03:45:00,
2013-12-31 22:50:00,31.6,25.2,30.38,NW,326,1.0,1.0,77,0.00,,,0.00,Wunderground v.1.15,2014-01-01 03:50:00,
2013-12-31 22:55:00,31.5,25.1,30.38,NW,326,0.0,2.0,77,0.00,,,0.00,Wunderground v.1.15,2014-01-01 03:55:00,
2013-12-31 23:00:00,31.6,25.2,30.38,NW,326,0.0,0.0,77,0.00,,,0.00,Wunderground v.1.15,2014-01-01 04:00:00,
2013-12-31 23:05:00,31.6,25.2,30.38,NW,326,0.0,0.0,77,0.00,,,0.00,Wunderground v.1.15,2014-01-01 04:05:00,
2013-12-31 23:10:00,31.6,25.2,30.39,NW,326,0.0,0.0,77,0.00,,,0.00,Wunderground v.1.15,2014-01-01 04:10:00,
2013-12-31 23:15:00,31.6,24.9,30.39,NW,326,1.0,1.0,76,0.00,,,0.00,Wunderground v.1.15,2014-01-01 04:15:00,
2013-12-31 23:20:00,31.9,25.2,30.39,NW,326,0.0,0.0,76,0.00,,,0.00,Wunderground v.1.15,2014-01-01 04:20:00,
2013-12-31 23:25:00,31.8,25.4,30.38,NW,326,0.0,0.0,77,0.00,,,0.00,Wunderground v.1.15,2014-01-01 04:25:00,
2013-12-31 23:30:00,31.7,25.3,30.38,NW,326,0.0,0.0,77,0.00,,,0.00,Wunderground v.1.15,2014-01-01 04:30:00,
2013-12-31 23:35:00,31.5,25.1,30.38,NW,326,0.0,0.0,77,0.00,,,0.00,Wunderground v.1.15,2014-01-01 04:35:00,
2013-12-31 23:40:00,31.3,24.9,30.38,NW,326,0.0,1.0,77,0.00,,,0.00,Wunderground v.1.15,2014-01-01 04:40:00,
2013-12-31 23:45:00,31.2,25.1,30.38,NW,326,0.0,1.0,78,0.00,,,0.00,Wunderground v.1.15,2014-01-01 04:45:00,
2013-12-31 23:50:00,31.1,25.0,30.38,NW,326,0.0,1.0,78,0.00,,,0.00,Wunderground v.1.15,2014-01-01 04:50:00,
2013-12-31 23:55:00,31.0,24.9,30.38,NW,326,1.0,1.0,78,0.00,,,0.00,Wunderground v.1.15,2014-01-01 04:55:00,